Regional Weather Roundup
Issued by NWS

Home | Current Version | Previous Version | Graphics & Text | Print | Product List | Glossary On
Versions: 1 2 3 4 5 6 7 8 9 10 11 12 13 14 15 16 17 18 19 20 21 22 23 24 25 26 27
000
ASUS45 KSLC 301710
RWRUT

UTAH REGIONAL WEATHER ROUNDUP
NATIONAL WEATHER SERVICE SALT LAKE CITY UT
1100 AM MDT SAT APR 30 2016

UTZ001>011-023>025-301800-

NORTHERN UTAH

CITY           SKY/WX    TMP DP  RH WIND       PRES   REMARKS
BRIGHAM CITY   CLOUDY    53  30  41 E8        29.98R
HILL AFB       NOT AVBL
LOGAN          MOSUNNY   51  38  60 VRB3      29.99S
OGDEN          CLOUDY    52  32  46 NE17      29.95S
PROVO AIRPORT  MOSUNNY   52  37  58 VRB6      29.93F
SALT LAKE CITY MOSUNNY   56  31  38 CALM      29.94S
VERNAL         CLOUDY    47  29  49 NE13G22   29.98R
WENDOVER       CLOUDY    52  37  58 N7        29.99R
HEBER CITY     MOSUNNY   46  30  53 CALM      29.95S

$$

UTZ012>022-026-027-301800-

SOUTHERN/CENTRAL UTAH

CITY           SKY/WX    TMP DP  RH WIND       PRES   REMARKS
BLANDING       CLOUDY    49  37  63 SE6       29.96S
BRYCE CANYON   LGT SNOW  35  32  88 SE13      29.91R FOG     WCI  26
CEDAR CITY     CLOUDY    51  38  60 NE10      29.84S
DELTA          MOSUNNY   52  36  54 NE12      29.91F
HANKSVILLE     CLOUDY    46  41  81 NE7       29.92S
MILFORD        PTSUNNY   50  40  68 N20G28    29.89S
MOAB/CYNLANDS  PTSUNNY   56  33  42 NE16      29.88R
PRICE          PTSUNNY   50  29  44 NE16G22   29.93R
ST GEORGE      CLOUDY    54  43  66 CALM      29.84S

$$

REGIONAL REPORTS     COLORADO/ARIZONA

CITY           SKY/WX    TMP DP  RH WIND       PRES   REMARKS
CRAIG, CO      CLOUDY    44  30  57 NE5       29.93R
GRAND JUNCTION CLOUDY    49  32  52 N5        29.91R
RIFLE          CLOUDY    46  31  55 NW6       29.91R
MONTROSE       CLOUDY    48  33  56 SE5       29.91F
CORTEZ         CLOUDY    49  35  58 CALM      29.89F
PAGE, AZ       LGT RAIN  49  44  83 W7        29.87R
GRAND CANYON   LGT RAIN  38  35  89 NW3       29.89S FOG
KINGMAN        LGT RAIN  56  42  59 S5        29.75R
FLAGSTAFF      CLOUDY    43  38  82 S8        29.88F

$$

REGIONAL REPORTS    NEVADA/IDAHO/WYOMING

CITY           SKY/WX    TMP DP  RH WIND       PRES   REMARKS
LAS VEGAS, NV  LGT RAIN  50  47  89 CALM      29.75S FOG
ELY            CLOUDY    44  37  76 N18       29.95R
ELKO           CLOUDY    49  33  54 NE12      30.02S
POCATELLO, ID  CLOUDY    49  40  71 NE3       30.04R
BURLEY         CLOUDY    43  38  82 W12       30.06R
EVANSTON, WY   CLOUDY    39  27  62 E18G25    30.01R WCI  30
ROCK SPRINGS   CLOUDY    36  31  82 NE17G23   30.03R WCI  26
KEMMERER         N/A     37  30  75 E7        30.04R WCI  32

$$




USA.gov is the U.S. government's official web portal to all federal, state and local government web resources and services.